| time (UTC) | temp C | wind direction | speed KPH | gust KPH | rain 1hr cm | rain 24hr cm | rain mn cm | humidity % | barometer mb |
| 20260901032004 | 26 | 160 | 1.6 | 8.0 | 0.00 | 0.28 | 0.28 | 90 | 1015.3 |
| 20260901030004 | 26 | 204 | 4.8 | 9.7 | 0.00 | 0.28 | 0.28 | 90 | 1015.2 |
| 20260901025004 | 26 | 183 | 3.2 | 9.7 | 0.00 | 0.28 | 0.28 | 89 | 1015.3 |
| 20260901024003 | 26 | 189 | 4.8 | 9.7 | 0.00 | 0.28 | 0.28 | 89 | 1015.1 |
| 20260901022004 | 27 | 198 | 1.6 | 9.7 | 0.00 | 0.28 | 0.28 | 88 | 1015.2 |
| 20260901021004 | 27 | 196 | 4.8 | 11.3 | 0.00 | 0.28 | 0.28 | 87 | 1015.4 |
| 20260901020003 | 27 | 219 | 3.2 | 14.5 | 0.00 | 0.28 | 0.28 | 86 | 1015.4 |
| 20260901015003 | 27 | 211 | 8.0 | 11.3 | 0.00 | 0.28 | 0.28 | 86 | 1015.1 |
| 20260901014004 | 27 | 211 | 6.4 | 12.9 | 0.00 | 0.28 | 0.28 | 85 | 1015.2 |
| 20260901013003 | 27 | 222 | 4.8 | 14.5 | 0.00 | 0.28 | 0.28 | 84 | 1015.0 |
| 20260901012004 | 28 | 216 | 4.8 | 9.7 | 0.00 | 0.28 | 0.28 | 83 | 1014.7 |
| 20260901010003 | 28 | 204 | 3.2 | 14.5 | 0.00 | 0.28 | 0.28 | 82 | 1014.6 |
| 20260901004004 | 28 | 205 | 6.4 | 11.3 | 0.00 | 0.28 | 0.28 | 81 | 1014.3 |
| 20260901003004 | 28 | 192 | 4.8 | 12.9 | 0.00 | 0.28 | 0.28 | 80 | 1014.3 |
| 20260901002004 | 29 | 197 | 4.8 | 12.9 | 0.00 | 0.28 | 0.28 | 79 | 1014.1 |
| 20260901001003 | 29 | 181 | 3.2 | 8.0 | 0.00 | 0.28 | 0.28 | 77 | 1013.9 |
| 20260901000004 | 30 | 191 | 3.2 | 8.0 | 0.00 | 0.28 | 0.28 | 76 | 1013.8 |
| 20260831235003 | 30 | 232 | 3.2 | 9.7 | 0.00 | 0.28 | 0.28 | 75 | 1013.8 |
| 20260831234003 | 30 | 187 | 3.2 | 8.0 | 0.00 | 0.28 | 0.28 | 75 | 1013.6 |
| 20260831233004 | 30 | 209 | 4.8 | 8.0 | 0.00 | 0.28 | 0.28 | 74 | 1013.6 |
| 20260831232003 | 30 | 164 | 1.6 | 4.8 | 0.00 | 0.28 | 0.28 | 74 | 1013.3 |
| 20260831225003 | 30 | 199 | 1.6 | 11.3 | 0.00 | 0.28 | 0.28 | 73 | 1013.3 |
| 20260831224005 | 31 | 123 | 3.2 | 4.8 | 0.00 | 0.28 | 0.28 | 72 | 1013.2 |
| 20260831223004 | 31 | 215 | 1.6 | 8.0 | 0.00 | 0.28 | 0.28 | 71 | 1013.2 |
| 20260831222004 | 31 | 258 | 3.2 | 9.7 | 0.00 | 0.28 | 0.28 | 71 | 1013.4 |
| 20260831221004 | 31 | 281 | 6.4 | 11.3 | 0.00 | 0.28 | 0.28 | 70 | 1013.2 |
| 20260831220003 | 31 | 290 | 4.8 | 14.5 | 0.00 | 0.28 | 0.28 | 70 | 1013.5 |
| 20260831215004 | 31 | 286 | 9.7 | 12.9 | 0.00 | 0.28 | 0.28 | 70 | 1013.5 |
| 20260831213003 | 31 | 277 | 3.2 | 14.5 | 0.00 | 0.28 | 0.28 | 68 | 1013.2 |
| 20260831212003 | 31 | 284 | 9.7 | 20.9 | 0.00 | 0.28 | 0.28 | 68 | 1013.2 |
| 20260831211003 | 32 | 236 | 8.0 | 14.5 | 0.00 | 0.28 | 0.28 | 65 | 1013.1 |
| 20260831205004 | 32 | 270 | 6.4 | 16.1 | 0.00 | 0.28 | 0.28 | 66 | 1013.2 |
| 20260831204004 | 32 | 291 | 8.0 | 16.1 | 0.00 | 0.28 | 0.28 | 67 | 1013.1 |
| 20260831203003 | 32 | 215 | 9.7 | 22.5 | 0.00 | 0.28 | 0.28 | 66 | 1013.3 |
| 20260831202003 | 32 | 280 | 3.2 | 16.1 | 0.00 | 0.28 | 0.28 | 67 | 1013.3 |
| 20260831201004 | 31 | 274 | 8.0 | 16.1 | 0.00 | 0.28 | 0.28 | 68 | 1013.5 |
| 20260831200004 | 31 | 234 | 8.0 | 22.5 | 0.00 | 0.28 | 0.28 | 69 | 1013.3 |
| 20260831195003 | 31 | 293 | 9.7 | 16.1 | 0.00 | 0.28 | 0.28 | 69 | 1013.3 |
| 20260831194004 | 31 | 239 | 4.8 | 22.5 | 0.00 | 0.28 | 0.28 | 68 | 1013.3 |
| 20260831193004 | 30 | 236 | 11.3 | 20.9 | 0.00 | 0.28 | 0.28 | 71 | 1013.3 |
| 20260831192004 | 30 | 291 | 12.9 | 20.9 | 0.00 | 0.28 | 0.28 | 70 | 1014.0 |
| 20260831191004 | 30 | 272 | 9.7 | 16.1 | 0.00 | 0.28 | 0.28 | 70 | 1013.5 |
| 20260831190004 | 30 | 277 | 8.0 | 11.3 | 0.00 | 0.28 | 0.28 | 70 | 1013.5 |
| 20260831185004 | 30 | 226 | 8.0 | 22.5 | 0.00 | 0.28 | 0.28 | 69 | 1013.7 |
| 20260831184003 | 30 | 238 | 4.8 | 14.5 | 0.00 | 0.28 | 0.28 | 68 | 1013.5 |
| 20260831183004 | 30 | 256 | 4.8 | 20.9 | 0.00 | 0.28 | 0.28 | 69 | 1013.5 |
| 20260831182004 | 30 | 229 | 9.7 | 14.5 | 0.00 | 0.28 | 0.28 | 69 | 1013.7 |
| 20260831181004 | 30 | 211 | 8.0 | 11.3 | 0.00 | 0.28 | 0.28 | 69 | 1013.6 |
| 20260831180003 | 30 | 247 | 4.8 | 19.3 | 0.00 | 0.28 | 0.28 | 70 | 1013.9 |
| 20260831175004 | 30 | 271 | 8.0 | 12.9 | 0.00 | 0.28 | 0.28 | 70 | 1013.8 |
| 20260831174003 | 28 | 251 | 8.0 | 20.9 | 0.00 | 0.28 | 0.28 | 71 | 1014.0 |
| 20260831173003 | 29 | 177 | 9.7 | 16.1 | 0.00 | 0.28 | 0.28 | 70 | 1013.8 |
| 20260831171003 | 29 | 202 | 8.0 | 19.3 | 0.00 | 0.28 | 0.28 | 69 | 1013.9 |
| 20260831165004 | 29 | 193 | 4.8 | 19.3 | 0.00 | 0.28 | 0.28 | 70 | 1013.9 |
| 20260831163004 | 28 | 199 | 6.4 | 20.9 | 0.00 | 0.28 | 0.28 | 71 | 1013.9 |
| 20260831161003 | 28 | 206 | 9.7 | 16.1 | 0.00 | 0.28 | 0.28 | 72 | 1014.1 |
| 20260831155003 | 27 | 196 | 8.0 | 20.9 | 0.00 | 0.28 | 0.28 | 73 | 1014.6 |
| 20260831154003 | 27 | 203 | 11.3 | 19.3 | 0.00 | 0.28 | 0.28 | 72 | 1014.3 |
| 20260831153003 | 27 | 262 | 9.7 | 16.1 | 0.00 | 0.28 | 0.28 | 73 | 1014.4 |
| 20260831152003 | 27 | 214 | 9.7 | 22.5 | 0.00 | 0.28 | 0.28 | 73 | 1014.4 |
| 20260831151003 | 27 | 212 | 9.7 | 14.5 | 0.00 | 0.28 | 0.28 | 75 | 1014.2 |
| 20260831150004 | 26 | 222 | 9.7 | 22.5 | 0.00 | 0.28 | 0.28 | 77 | 1014.6 |
| 20260831145004 | 26 | 177 | 9.7 | 14.5 | 0.00 | 0.28 | 0.28 | 78 | 1014.3 |
| 20260831144004 | 26 | 222 | 11.3 | 16.1 | 0.00 | 0.28 | 0.28 | 79 | 1014.3 |
| 20260831143003 | 26 | 203 | 4.8 | 14.5 | 0.00 | 0.28 | 0.28 | 80 | 1014.3 |
| 20260831142003 | 25 | 191 | 4.8 | 12.9 | 0.00 | 0.28 | 0.28 | 82 | 1014.2 |
| 20260831141003 | 25 | 133 | 3.2 | 8.0 | 0.00 | 0.28 | 0.28 | 83 | 1014.5 |
| 20260831140003 | 25 | 176 | 3.2 | 8.0 | 0.00 | 0.28 | 0.28 | 85 | 1014.9 |
| 20260831135004 | 24 | 140 | 3.2 | 8.0 | 0.00 | 0.28 | 0.28 | 87 | 1014.9 |
| 20260831134004 | 23 | 99 | 3.2 | 9.7 | 0.00 | 0.28 | 0.28 | 90 | 1014.9 |
| 20260831133004 | 23 | 102 | 3.2 | 11.3 | 0.00 | 0.28 | 0.28 | 91 | 1014.6 |
| 20260831132004 | 22 | 105 | 3.2 | 9.7 | 0.00 | 0.28 | 0.28 | 95 | 1014.8 |
| 20260831130004 | 21 | 97 | 4.8 | 8.0 | 0.00 | 0.28 | 0.28 | 95 | 1015.0 |
| 20260831125003 | 21 | 67 | 3.2 | 8.0 | 0.00 | 0.28 | 0.28 | 96 | 1014.9 |
| 20260831123003 | 21 | 78 | 1.6 | 4.8 | 0.00 | 0.28 | 0.28 | 98 | 1015.1 |
| 20260831122004 | 21 | 125 | 3.2 | 8.0 | 0.00 | 0.28 | 0.28 | 99 | 1014.8 |
| 20260831120003 | 21 | 319 | 1.6 | 8.0 | 0.00 | 0.28 | 0.28 | 99 | 1015.1 |
| 20260831115004 | 21 | 130 | 3.2 | 8.0 | 0.00 | 0.28 | 0.28 | 99 | 1014.9 |
| 20260831114004 | 21 | 115 | 4.8 | 11.3 | 0.00 | 0.28 | 0.28 | 99 | 1014.9 |
| 20260831113003 | 20 | 152 | 4.8 | 9.7 | 0.00 | 0.28 | 0.28 | 99 | 1014.8 |
| 20260831112004 | 20 | 115 | 4.8 | 8.0 | 0.00 | 0.28 | 0.28 | 99 | 1015.0 |
| 20260831111004 | 20 | 94 | 4.8 | 8.0 | 0.00 | 0.28 | 0.28 | 99 | 1014.8 |
| 20260831110003 | 20 | 81 | 3.2 | 8.0 | 0.00 | 0.28 | 0.28 | 99 | 1015.1 |
| 20260831103004 | 20 | 103 | 3.2 | 8.0 | 0.10 | 0.28 | 0.28 | 99 | 1015.1 |
| 20260831100004 | 21 | 106 | 3.2 | 11.3 | 0.23 | 0.28 | 0.28 | 99 | 1015.6 |
| 20260831095004 | 21 | 109 | 4.8 | 8.0 | 0.18 | 0.20 | 0.20 | 99 | 1016.0 |
| 20260831094004 | 21 | 95 | 1.6 | 4.8 | 0.15 | 0.18 | 0.18 | 99 | 1016.0 |
| 20260831093004 | 21 | 81 | 4.8 | 4.8 | 0.13 | 0.18 | 0.18 | 99 | 1015.7 |
| 20260831092003 | 21 | 56 | 1.6 | 3.2 | 0.13 | 0.15 | 0.15 | 99 | 1015.9 |
| 20260831090004 | 21 | 85 | 1.6 | 4.8 | 0.00 | 0.05 | 0.05 | 99 | 1015.8 |
| 20260831083004 | 21 | 110 | 1.6 | 3.2 | 0.00 | 0.05 | 0.05 | 99 | 1015.9 |
| 20260831082003 | 21 | 92 | 1.6 | 3.2 | 0.00 | 0.05 | 0.05 | 99 | 1016.0 |
| 20260831081004 | 21 | 99 | 1.6 | 3.2 | 0.00 | 0.05 | 0.05 | 99 | 1015.7 |
| 20260831075004 | 21 | 112 | 1.6 | 4.8 | 0.00 | 0.05 | 0.05 | 99 | 1015.7 |
| 20260831073003 | 21 | 102 | 3.2 | 3.2 | 0.00 | 0.05 | 0.05 | 99 | 1016.1 |
| 20260831071003 | 21 | 90 | 3.2 | 4.8 | 0.00 | 0.05 | 0.05 | 99 | 1016.5 |
| 20260831070003 | 21 | 85 | 3.2 | 3.2 | 0.05 | 0.05 | 0.05 | 98 | 1016.9 |
| 20260831065003 | 21 | 110 | 1.6 | 3.2 | 0.05 | 0.05 | 0.05 | 98 | 1017.0 |
| 20260831064003 | 21 | 128 | 3.2 | 9.7 | 0.05 | 0.05 | 0.05 | 98 | 1017.1 |
| 20260831063004 | 21 | 180 | 4.8 | 4.8 | 0.05 | 0.05 | 0.05 | 98 | 1017.5 |
| 20260831062004 | 21 | 173 | 3.2 | 4.8 | 0.05 | 0.05 | 0.05 | 97 | 1017.6 |
| 20260831061004 | 21 | 192 | 3.2 | 8.0 | 0.03 | 0.03 | 0.03 | 96 | 1017.7 |
| 20260831053004 | 22 | 129 | 1.6 | 8.0 | 0.00 | 0.00 | 0.00 | 94 | 1017.6 |
| 20260831052004 | 22 | 196 | 4.8 | 9.7 | 0.00 | 0.00 | 0.00 | 94 | 1017.8 |
| 20260831051003 | 22 | 200 | 3.2 | 8.0 | 0.00 | 0.00 | 0.00 | 94 | 1017.5 |
| 20260831044003 | 22 | 277 | 1.6 | 3.2 | 0.00 | 0.00 | 0.00 | 93 | 1017.4 |
| 20260831043004 | 22 | 71 | 0.0 | 3.2 | 0.00 | 0.00 | 0.00 | 93 | 1017.3 |
| 20260831042004 | 22 | 119 | 0.0 | 3.2 | 0.00 | 0.00 | 0.00 | 93 | 1017.0 |
| 20260831040004 | 22 | 84 | 0.0 | 3.2 | 0.00 | 0.00 | 0.00 | 93 | 1017.1 |
| 20260831035004 | 22 | 103 | 1.6 | 1.6 | 0.00 | 0.00 | 0.00 | 93 | 1017.1 |
| 20260831034003 | 22 | 94 | 1.6 | 3.2 | 0.00 | 0.00 | 0.00 | 93 | 1017.3 |
| 20260831033004 | 22 | 84 | 1.6 | 4.8 | 0.00 | 0.00 | 0.00 | 92 | 1017.2 |